Location: Northwest Suburban Astronomers
(42.1100°N, 88.0300°W)
Time: 03:23:26
(UTC-05:00)

Daily predictions for brighter satellites

Satellite Brightness Start Highest point End
(mag) Time Altitude Azimuth Time Altitude Azimuth Time Altitude Azimuth
Cosmos 1842 4.5 00:06:40 37° WNW 00:06:40 37° WNW 00:09:56 10° N
Cosmos 2058 Rocket 4.0 00:04:47 10° NNW 00:08:50 39° W 00:08:50 39° W
Cosmos 1470 3.7 00:08:04 10° N 00:10:54 46° N 00:10:54 46° N
Terra 4.0 00:12:52 14° W 00:13:35 14° W 00:16:10 10° WNW
Cosmos 1818 3.5 00:13:59 71° ESE 00:13:59 71° ESE 00:19:14 10° NE
Iridium 4 Rocket 3.8 00:12:59 61° SW 00:13:47 69° W 00:19:40 10° N
CZ-4C R/B 3.9 00:20:13 66° NNE 00:20:13 66° NNE 00:24:10 10° N
Cosmos 2333 Rocket 3.4 00:16:33 10° NW 00:21:24 29° WSW 00:21:38 29° WSW
Meteor 2-5 Rocket 4.4 00:22:13 42° E 00:22:33 43° E 00:28:05 10° NNE
ALOS 2 2.9 00:23:42 66° NNW 00:23:42 66° NNW 00:27:31 10° NNW
DELTA 2 DEB (DPAF) 4.4 00:23:52 68° NNW 00:23:52 68° NNW 00:27:48 10° NNW
SL-16 R/B 2.2 00:20:24 10° NNW 00:26:04 70° ENE 00:26:44 63° ESE
ISS -1.3 00:24:58 10° NW 00:27:33 21° NNE 00:27:41 21° NNE
Meteor 1-16 Rocket 4.3 00:23:33 10° N 00:28:47 56° ENE 00:29:04 55° E
Cosmos 1953 3.4 00:24:55 10° NNW 00:27:47 41° NW 00:27:47 41° NW
Cosmos 1980 4.5 00:30:16 10° NW 00:35:20 37° WSW 00:35:20 37° WSW
Cosmos 1707 3.8 00:37:14 44° N 00:37:14 44° N 00:40:02 10° N
Cosmos 1626 Rocket 4.5 00:38:06 42° WNW 00:38:06 42° WNW 00:42:04 10° N
deb Chang Zheng 4 4.3 00:34:57 10° NNE 00:38:21 48° NE 00:38:21 48° NE
Cosmos 1812 Rocket 4.1 00:35:12 10° NNW 00:38:43 52° NW 00:38:43 52° NW
Cosmos 1602 Rocket 4.4 00:40:48 44° WNW 00:40:48 44° WNW 00:44:39 10° N
Cosmos 2297 Rocket 2.9 00:41:29 38° WSW 00:43:00 47° WNW 00:48:28 10° NNE
Cosmos 972 Rocket 4.3 00:43:21 56° E 00:43:21 56° E 00:48:05 10° NNE
Cosmos 2056 Rocket 4.3 00:38:51 10° N 00:43:42 41° ENE 00:44:26 38° E
ADEOS Rocket 2.6 00:40:47 10° NNE 00:46:20 83° WNW 00:46:45 76° SW
Cosmos 2227 Rocket 3.2 00:44:40 31° W 00:46:32 40° WNW 00:51:52 10° N
Cosmos 923 Rocket 4.3 00:48:09 56° W 00:48:36 58° WNW 00:53:47 10° NNE
Cosmos-2242 4.2 00:45:17 10° N 00:48:51 36° ENE 00:48:51 36° ENE
Cosmos 1680 Rocket 3.4 00:49:28 74° W 00:49:33 75° WNW 00:54:47 10° NNE
Cosmos 1758 Rocket 4.0 00:53:12 58° NE 00:53:12 58° NE 00:56:59 10° NNE
Cosmos 2112 Rocket 3.9 00:52:41 82° WNW 00:52:41 82° WNW 00:57:53 10° NNE
Cosmos 2237 Rocket 3.4 00:48:18 10° NW 00:52:51 29° W 00:52:51 29° W
Cosmos 1624 Rocket 4.4 00:48:34 10° N 00:53:48 54° ENE 00:54:26 51° E
NOSS 3-1 (C) 4.1 00:56:13 36° ESE 00:56:13 36° ESE 01:01:25 10° NE
CZ-4B R/B 3.9 00:55:09 10° N 01:00:06 54° WNW 01:00:30 52° W
H-2A R/B 3.2 01:04:03 36° WNW 01:04:03 36° WNW 01:07:07 10° NNW
Mayak 0.2 01:00:41 10° N 01:04:15 31° WNW 01:04:15 31° WNW
Cosmos 2227 4.4 01:08:37 56° ESE 01:08:39 56° ESE 01:14:10 10° NNE
USA 229 DEB 3.5 01:13:41 60° SSW 01:15:04 88° SE 01:22:01 10° NE
USA 229 3.5 01:13:49 60° SSW 01:15:11 87° SE 01:22:07 10° NE
In-Cosmos 22 3.9 01:15:45 86° S 01:15:53 89° E 01:21:17 10° N
CZ-4B R/B 4.1 01:15:56 15° ENE 01:15:57 15° ENE 01:17:58 10° NNE
NOSS 3-1 (A) 4.1 01:16:39 35° ESE 01:16:39 35° ESE 01:22:11 10° NE
Cosmos 1553 Rocket 3.9 01:21:26 64° SSE 01:22:25 79° E 01:28:35 10° N
Cosmos 1674 3.9 01:26:46 38° NE 01:26:46 38° NE 01:29:19 10° NNE
CZ-2D R/B 4.5 01:26:31 10° ENE 01:28:00 11° E 01:29:29 10° ESE
Cosmos 2292 Rocket 3.8 01:24:09 10° N 01:28:08 78° NE 01:28:08 78° NE
Cosmos 1400 Rocket 4.2 01:29:35 33° NW 01:29:35 33° NW 01:32:48 10° N
Cosmos 2221 4.3 01:33:05 10° NNE 01:36:40 24° ENE 01:37:43 22° E
PSLV R/B 3.8 01:34:42 10° NNE 01:38:45 69° ENE 01:38:45 69° ENE
Cosmos 1340 4.4 01:35:54 10° NNE 01:39:08 26° ENE 01:39:09 26° ENE
MOS 1 Rocket 3.5 01:35:19 10° NNE 01:40:49 84° ESE 01:41:21 73° S
Cosmos 1238 Rocket 4.3 01:44:18 31° WNW 01:44:18 31° WNW 01:47:36 10° NNW
Resurs 1-4 Rocket 4.1 01:43:13 10° NE 01:46:48 18° E 01:48:39 15° ESE
DELTA 2 R/B (1) 3.5 01:55:45 65° SSE 01:55:45 65° SSE 02:00:52 10° ESE
Meteor 1-24 Rocket 4.3 01:57:40 42° WSW 01:58:38 46° WNW 02:04:18 10° N
Cosmos 1315 Rocket 4.2 02:04:05 28° WNW 02:04:05 28° WNW 02:06:59 10° NNW
SL-16 R/B 3.6 02:00:50 14° SE 02:05:42 40° ENE 02:11:25 10° N
Meteor 2-10 3.8 02:02:09 10° N 02:07:13 86° W 02:07:49 70° S
Cosmos 2263 Rocket 2.1 02:06:21 61° S 02:07:22 80° ESE 02:13:05 10° NNE
Cosmos 1842 Rocket 3.5 02:04:16 10° N 02:08:26 76° WNW 02:08:26 76° WNW
Cosmos 2315 Rocket 4.2 02:06:43 43° SSE 02:08:41 65° E 02:14:51 10° NNE
Cosmos 1943 3.1 02:02:57 10° NNW 02:08:42 89° ENE 02:10:17 50° SSE
SL-16 R/B 4.1 02:06:06 10° WNW 02:08:36 16° W 02:08:36 16° W
Cosmos 1745 Rocket 4.2 02:04:35 10° NNW 02:10:47 57° W 02:12:07 48° SW
BREEZE M DEB (TANK) 4.3 02:10:48 37° S 02:12:36 42° SSE 02:16:47 10° ENE
GEOS 3 Rocket 3.6 02:07:25 10° NE 02:12:46 77° SE 02:13:41 60° S
Cosmos 1726 3.2 02:12:20 10° NNW 02:14:50 36° NW 02:14:50 36° NW
Cosmos 1300 2.9 02:12:22 10° N 02:15:57 66° NE 02:15:57 66° NE
Cosmos 468 4.5 02:15:24 61° S 02:16:18 79° ESE 02:21:39 10° NNE
Cosmos 1346 Rocket 4.3 02:18:29 10° NNW 02:20:44 25° WNW 02:20:44 25° WNW
Cosmos 1452 Rocket 3.4 02:18:25 10° NNW 02:23:40 67° WSW 02:24:24 59° SSW
Cosmos 158 Rocket 4.1 02:22:59 53° WSW 02:24:05 67° WNW 02:29:28 10° NNE
H-2A R/B 3.6 02:21:39 10° NNE 02:25:49 37° E 02:26:47 33° SE
Cosmos 1048 Rocket 3.9 02:30:07 55° S 02:31:16 82° ESE 02:36:33 10° NNE
NOSS 2-3 (E) 4.4 02:30:40 39° SE 02:31:23 42° ESE 02:36:14 10° NE
Landsat 5 4.0 02:35:46 42° WNW 02:35:46 42° WNW 02:39:10 10° NNW
Okean 3 Rocket 3.6 02:44:47 54° S 02:45:47 80° E 02:50:14 10° N
AQUA 3.9 02:41:32 10° NNE 02:46:17 69° ESE 02:47:45 43° S
NOSS 3-1 (C) 4.3 02:43:35 25° W 02:46:32 41° NW 02:52:41 10° NNE
Cosmos 1709 Rocket 4.1 02:41:27 10° NNW 02:47:42 59° W 02:50:00 38° SSW
CZ-4B R/B 3.0 02:49:22 25° WNW 02:49:22 25° WNW 02:51:20 10° NNW
Cosmos 2074 Rocket 4.4 02:42:18 10° N 02:48:27 60° E 02:53:18 17° SSE
Cosmos 1607 4.2 02:42:50 10° NNW 02:49:16 73° NE 02:55:33 10° SE
SL-24 R/B - RUBIN 2 3.8 02:47:47 48° SSW 02:49:16 90° WNW 02:54:08 10° NNE
SL-14 R/B 3.9 02:50:47 40° WNW 02:50:47 40° WNW 02:54:25 10° N
Cosmos 1420 Rocket 4.4 02:47:08 10° NNW 02:52:02 42° WSW 02:52:37 41° WSW
Cosmos 2184 Rocket 4.4 02:47:36 10° N 02:53:58 65° E 02:59:10 16° SSE
SeaSat 1 2.9 02:51:51 10° SE 02:56:43 62° ENE 03:01:36 10° NNW
Cosmos 1626 2.0 02:57:05 66° WSW 02:57:21 69° W 03:01:04 10° N
Cosmos 2285 Rocket 4.2 02:56:20 34° SW 02:59:02 59° WNW 03:05:20 10° NNE
Cosmos 1076 Rocket 3.6 02:59:25 50° SW 03:00:17 62° W 03:04:36 10° N
UNK 3.6 02:59:24 38° S 03:01:11 80° WSW 03:05:53 10° NNW
Cosmos 1328 3.9 03:03:38 52° WSW 03:04:16 61° W 03:08:14 10° N
CBERS-1 4.0 02:59:24 10° N 03:04:30 72° WNW 03:06:29 38° SSW
IRS-1C 4.1 02:59:15 10° NNE 03:04:37 84° ESE 03:07:08 33° S
Cosmos 1689 Rocket 4.4 03:06:41 16° WNW 03:06:41 16° WNW 03:07:44 10° NW
NOSS 3-1 (A) 4.2 03:04:05 23° WSW 03:07:19 42° NW 03:13:32 10° NNE
CZ-2D R/B 2.0 03:03:30 10° NNE 03:08:44 86° WNW 03:11:07 34° SSW
NOSS 2-3 (C) 3.7 03:07:51 41° SSW 03:09:31 89° SE 03:14:52 10° NE
Cosmos 2151 4.2 03:07:27 18° SSE 03:10:06 37° E 03:14:06 10° NNE
SL-08 R/B 3.4 03:10:44 34° S 03:12:47 62° WSW 03:17:41 10° NNW
USA 267 3.4 03:06:54 10° NE 03:13:25 67° SE 03:17:05 28° SSW
Cosmos 2221 3.5 03:10:25 10° NNW 03:14:13 29° W 03:14:34 29° W
Cosmos 1340 4.5 03:11:53 10° NW 03:13:56 18° WNW 03:13:56 18° WNW
IRS-1D 3.6 03:09:19 10° NNE 03:14:41 88° ESE 03:17:28 29° SSW
Genesis I 4.3 03:13:50 29° W 03:15:04 36° NW 03:18:49 10° NNE
Cosmos 2327 Rocket 4.5 03:09:55 10° N 03:16:02 81° E 03:21:23 14° S
Cosmos 1110 Rocket 3.9 03:11:18 10° NNW 03:16:32 90° NE 03:21:14 13° SSE
ARIANE 5 R/B 2.6 03:13:41 10° NNE 03:18:47 72° ESE 03:21:43 25° S
Cosmos 494 Rocket 3.9 03:19:37 31° SSW 03:22:11 89° WNW 03:27:26 10° NNE
BREEZE-M DEB (TANK) 4.1 03:19:24 24° SW 03:24:08 54° SSE 03:27:49 10° ENE
H-II Stage 2 4.0 03:24:03 23° S 03:25:55 27° SSE 03:39:08 10° ESE
Resurs 1-4 Rocket 2.3 03:21:47 10° N 03:27:00 58° WNW 03:29:44 28° SW
Cosmos 1844 Rocket 2.7 03:29:00 25° SSW 03:32:25 85° ESE 03:38:08 10° NNE
OAO 2 Rocket 3.9 03:32:58 29° SW 03:34:34 36° S 03:39:05 10° ESE
PSLV R/B 4.0 03:33:26 27° S 03:35:30 57° W 03:39:40 10° NNW
MOZ.5/SAFIR/RUBIN 5/SL-8 4.0 03:37:41 23° SSW 03:40:30 51° W 03:45:10 10° NNW
Cosmos 1328 Rocket 3.4 03:36:20 10° N 03:40:40 79° W 03:44:01 16° S
Cosmos 1441 Rocket 4.0 03:37:23 10° N 03:41:18 52° ENE 03:45:08 10° SSE
DELTA 2 R/B (1) 3.9 03:36:33 12° W 03:41:25 41° SSW 03:46:39 10° SE
Cosmos 1500 Rocket 4.0 03:39:17 14° S 03:42:58 60° E 03:47:21 10° NNE
Cosmos 2278 Rocket 3.6 03:38:00 10° SSE 03:43:00 33° ESE 03:48:02 10° NE
Cosmos 1703 3.9 03:42:47 27° SW 03:44:17 39° WNW 03:48:01 10° N
ADEOS II 2.9 03:41:43 10° NNE 03:46:50 49° E 03:51:54 10° S
USA 234 4.4 03:40:51 10° E 03:47:01 47° NNE 03:53:14 10° NW
Cosmos 1766 Rocket 4.3 03:45:12 25° SW 03:47:05 37° WNW 03:51:10 10° N
Cosmos 1844 3.7 03:44:12 20° SSW 03:48:10 87° ESE 03:53:53 10° NNE
Cosmos 921 Rocket 3.9 03:44:40 10° NW 03:48:25 29° W 03:49:53 24° SW
SL-16 R/B 3.2 03:45:56 20° SSW 03:49:20 34° W 03:54:56 10° NNW
Cosmos 2263 Rocket 4.1 03:48:09 10° W 03:51:59 18° NW 03:55:51 10° N
Cosmos 2228 Rocket 3.1 03:47:53 10° N 03:52:30 89° WSW 03:57:03 10° S
UNKNOWN OBJECT B 2.6 03:52:09 10° NNE 03:55:53 86° WNW 03:58:39 18° SSW
Meteor 2-21 Rocket 4.4 03:50:56 10° N 03:57:04 76° W 04:03:06 10° S
Cosmos 1331 Rocket 4.3 03:52:38 10° NNW 03:57:30 43° WSW 04:02:20 10° S
Meteor 2-16 Rocket 4.4 03:54:43 10° N 04:00:51 86° W 04:06:58 10° S
H-2A R/B 4.2 03:57:40 10° NNW 04:01:03 22° WNW 04:03:22 15° WSW
Cosmos 1455 3.2 03:58:33 10° NNW 04:01:47 28° W 04:03:21 20° SW
Cosmos 1302 Rocket 4.0 03:57:16 10° NNW 04:02:34 73° WSW 04:07:50 10° S
Cosmos 1515 Rocket 3.5 03:59:30 10° NNW 04:03:47 64° W 04:08:05 10° S
Lacrosse 5 4.4 04:04:07 10° SE 04:05:31 11° ESE 04:06:55 10° E
GP-B 3.3 04:04:50 10° N 04:09:17 75° E 04:13:43 10° S
Helios 1A Rocket 3.1 04:06:09 10° N 04:10:11 56° WNW 04:13:24 15° SSW
Cosmos 1869 3.2 04:08:35 10° NNW 04:12:32 74° W 04:16:27 10° S
Cosmos 2251 Rocket 3.7 04:08:21 15° SW 04:12:44 62° WNW 04:18:05 10° NNE
Cosmos 2341 Rocket 4.0 04:07:15 10° N 04:13:32 82° W 04:19:49 10° S
Cosmos 2058 3.9 04:10:58 17° SW 04:13:38 32° WNW 04:17:27 10° N
COSMOS 2406 3.2 04:09:12 10° NNW 04:14:56 66° WSW 04:20:37 10° S
Cosmos 1151 Rocket 3.3 04:11:33 10° NNW 04:15:46 47° W 04:19:55 10° SSW
ADEOS 3.7 04:13:20 10° N 04:18:29 60° WNW 04:23:30 10° SSW
SL-8 Rocket 4.3 04:12:41 10° N 04:18:52 73° E 04:25:04 10° SSE
Okean O Rocket 4.3 04:16:48 10° NE 04:19:34 16° E 04:22:19 10° SE
APEX 4.3 04:17:14 10° N 04:19:46 34° ENE 04:22:21 10° SE
CZ-2D R/B 4.2 04:19:43 10° N 04:23:55 43° WNW 04:27:52 11° SW
Cosmos 2181 Rocket 4.1 04:22:36 10° S 04:29:02 78° W 04:35:31 10° N
Sich 1 4.2 04:25:10 10° SSE 04:29:12 43° E 04:33:15 10° NNE
Cosmos 2082 Rocket 3.9 04:24:04 10° N 04:29:23 38° ENE 04:34:41 10° SE
ATLAS 2AS CENTAUR R/B 3.1 04:22:31 11° SW 04:30:11 84° NW 04:38:23 10° NE
Cosmos 2366 rocket 4.4 04:24:15 10° N 04:30:31 68° E 04:36:40 10° SSE
SeaSat 1 3.9 04:31:19 10° SSW 04:34:34 18° WSW 04:37:51 10° WNW
CZ-2D R/B 4.1 04:46:04 10° NW 04:47:59 12° WNW 04:49:54 10° W
